铱星星座 163星 (IRIDIUM 163)

导读

IRIDIUM 163是美国铱星星座中的通信卫星,于2018年7月25日发射升空。它属于第二代铱星系统,承担全球覆盖的卫星移动通信任务,可为地球任意角落提供语音、数据通信服务。作为低轨卫星,运行在约780公里高度的极地轨道,通过星际链路实现信号中转,填补地面网络覆盖盲区,支撑全球无缝通信,设计寿命长达多年,保障铱星系统持续稳定运行。

Basic Information
目录编号:
43575
目录名称:
IRIDIUM 163
国际标识:
2018-061G
轨道中心:
EARTH
卫星名称:
铱星星座 163星
卫星全名:
铱星星座 163星 (IRIDIUM 163)
卫星状态:
在轨 (已飞行2970 天)
发射日期:
2018-07-25 UTC
国别 :
美国 (US)
星等 :
--
This satellite is enrolled in the Space Conjunction Data Service (SCDS) and the current flight risk assessment level is: No High Risk
Orbit Information
数据来源 国际轨道数据 AOE轨道数据
星历时间 2026-09-11T05:19:10+0800
13小时前
查看轨道信息
2026-09-10T06:00:00+0800
1天前
查看轨道信息
半长轴 7155.805km 7155.807km
偏心率 0.0002185 0.0002305
轨道倾角 86.400° 86.400°
近地点辐角 94.344° 94.037°
升交点赤经 20.875° 21.281°
平近点角 265.800° 292.484°
近地点 776.104km 776.02km
远地点 779.232km 779.32km
周期 100.403分钟 100.403分钟
每日圈数 14.342176 14.342171
Detailed Information
平衡模式:
三轴稳定
覆盖范围:
全球
运营商:
铱星通信公司
运营商所在国:
美国
制造商(研发单位):
阿莱尼亚宇航公司
制造商所在国:
意大利
使用方式:
暂无
Satellite Introduction
铱星(Iridium)是由共66个运作中的通信卫星组成的卫星通信系统。这个系统原本规划77个通信卫星,所以用原子序数为77的铱元素来命名。铱卫星允许人们使用手持型电子设备进行全球性的语音及数据通讯。该卫星仍在工作。
2D Orbit Map
3D Orbit Map
Orbit Altitude Analysis Chart
Orbit Inclination Analysis Chart
Orbit Comprehensive Analysis Chart
View Comprehensive Chart
Conjunction Data List
Event ID Objects TCA Miss Dist (km) Collision Risk Probability Collision Risk Index (CRI) Action
CDM_260912-172303-998304-357524
2026-09-12T
17:23:16+0000
2.646 km
极远距离
1.575099E-6 低风险 0.39
Miss Distance Evolution Trend with All Objects
Collision Probability Evolution Trend with All Objects